Location: Freistadt
(48.5112°N, 14.5013°E)
Time: 09:58:23
(UTC+02:00)

NOAA 16 DEB - Pass Details

Date: 28 May 2024
Orbit: 738 x 810 km, 99.0° (Epoch: 16 June)

Event Time Altitude Azimuth Distance (km) Brightness Sun altitude
Rises 02:41:39 0° 116° (ESE) 3,324 ? -16.3°
Reaches altitude 10° 02:44:39 10° 99° (E) 2,392 ? -16.1°
Maximum altitude 02:48:12 19° 56° (NE) 1,856 ? -15.9°
Drops below altitude 10° 02:51:44 10° 14° (NNE) 2,380 ? -15.6°
Sets 02:54:41 0° 357° (N) 3,302 ? -15.4°
